Wind_Speed
38 37 37 35 34 32 28 27 23 18 18 19 20 20 18 17 17 15 14 13 11 10 12 13 11 9 7 6 6 7 12 18 21 22 23 25 27 27 25 24 22 20 20 20 19 19 20 20 19 19 17 17 18 19 20 22 24 26 26 23 19 14 15 17 19 22 27 31 31 31 31 30 29 29
37 37 36 34 33 29 26 24 19 16 17 17 16 16 15 15 16 16 15 14 11 9 11 11 10 10 9 9 9 6 7 14 20 21 21 24 27 28 28 28 26 24 23 23 21 19 19 21 21 21 20 18 19 20 21 22 24 26 28 29 27 23 16 14 13 14 18 22 24 25 28 31 32 30
35 35 34 33 31 28 24 21 16 16 19 18 15 14 13 12 14 14 14 15 13 10 11 11 12 13 14 15 15 13 10 13 18 22 23 23 26 28 29 29 29 27 26 25 24 22 20 20 22 23 22 21 20 21 22 23 22 23 26 29 31 31 27 21 17 14 12 12 12 12 16 25 33 33
32 31 31 31 29 27 24 21 16 14 16 17 15 14 14 14 14 14 15 17 16 11 10 11 10 11 15 19 20 21 20 17 17 22 25 26 26 27 29 30 30 30 29 28 27 25 23 21 22 24 23 22 21 21 22 21 20 20 22 27 31 33 33 31 28 24 20 16 12 9 8 12 22 29
26 26 25 25 24 24 23 23 20 14 13 15 16 15 15 15 15 15 15 17 16 13 10 11 13 13 16 20 22 21 21 18 16 17 21 25 26 27 29 30 30 31 31 30 29 28 27 25 24 24 24 24 24 23 23 21 20 21 23 24 27 30 33 34 33 31 29 25 22 19 16 11 11 15
22 22 22 21 21 21 21 23 23 18 14 15 16 16 16 16 15 15 16 16 16 15 12 12 14 14 13 17 19 19 19 19 17 17 18 21 24 26 28 29 31 31 31 32 31 30 30 28 27 26 25 25 25 25 24 22 21 23 24 23 23 25 29 31 31 31 31 30 29 28 25 21 16 12
20 20 20 19 19 20 21 21 22 22 20 18 17 17 17 17 17 16 16 17 17 17 16 13 12 13 13 15 17 17 18 19 19 19 18 18 19 22 26 28 30 31 32 32 32 32 32 31 30 28 27 27 27 27 26 25 25 26 26 25 23 23 25 25 25 27 28 29 31 32 31 29 25 20
19 18 17 17 17 19 20 20 20 22 23 23 22 20 19 18 19 18 18 18 18 18 17 15 12 12 13 14 14 15 16 18 19 19 18 17 16 18 22 24 28 30 31 32 33 33 33 33 32 31 30 29 29 28 28 28 28 28 28 26 25 25 23 22 22 23 23 24 26 28 32 33 32 28
18 16 15 15 15 17 18 19 20 20 21 22 23 24 24 23 20 18 18 19 19 19 19 18 15 14 14 15 14 14 16 18 20 20 19 19 16 14 16 20 24 28 29 30 32 34 34 34 34 33 32 31 30 30 30 30 30 30 30 28 28 27 25 23 22 21 21 21 21 22 25 29 32 32
17 15 14 13 13 14 15 16 17 19 20 20 22 23 24 25 22 18 18 19 19 20 20 20 19 17 16 17 16 15 15 18 20 20 19 16 14 13 15 18 20 23 26 29 30 32 33 34 34 34 34 33 32 32 31 32 32 32 31 30 30 29 28 26 24 23 22 21 20 20 20 21 24 28
16 14 13 12 11 10 9 9 11 14 17 19 21 21 22 23 23 22 22 22 22 22 23 22 21 18 16 16 17 15 14 16 18 17 15 14 14 15 15 16 16 18 22 25 28 30 32 33 34 34 34 34 34 33 32 32 33 33 33 32 32 31 30 28 26 25 24 23 22 21 21 20 19 21
16 14 12 12 10 9 8 7 8 9 12 15 18 20 21 22 22 23 24 24 24 24 23 22 21 17 14 14 15 14 14 16 17 15 15 17 18 17 16 15 15 16 18 21 25 27 28 30 32 33 33 34 34 34 33 33 34 34 34 34 33 33 32 30 29 27 26 25 24 23 23 22 21 20
15 13 13 12 10 9 10 10 11 11 11 12 14 16 18 20 21 22 22 23 24 23 21 21 19 16 14 13 13 13 13 14 14 14 15 18 18 17 17 17 16 15 16 17 21 23 25 27 29 31 32 33 33 33 34 34 34 34 34 34 34 34 34 32 31 30 28 27 26 25 25 24 24 23
15 14 14 12 11 11 12 13 14 14 14 14 14 14 15 17 18 20 21 21 21 20 19 20 18 15 15 14 14 14 15 14 13 13 13 16 17 16 18 19 16 13 13 13 15 19 22 24 26 28 30 31 31 32 33 34 35 34 34 34 34 34 34 34 33 32 31 30 29 28 27 26 26 26
15 16 16 14 13 13 13 14 15 15 15 15 15 15 15 16 17 19 20 20 20 20 20 20 19 19 19 17 15 15 15 15 15 15 15 15 16 16 16 19 16 9 8 11 12 13 15 19 23 26 28 29 30 31 32 33 34 34 34 33 33 33 33 33 33 33 32 31 31 30 29 29 28 28
17 17 16 14 14 14 14 15 16 16 15 15 15 15 16 16 17 18 18 17 16 17 18 18 19 20 19 17 15 14 13 12 13 15 17 16 16 17 17 19 16 9 7 10 12 11 11 13 19 23 24 25 26 29 32 33 33 33 34 33 33 33 33 33 32 32 32 32 32 31 31 30 30 29
19 18 16 14 13 13 14 16 18 17 15 15 15 15 15 17 20 22 22 20 18 15 16 18 20 20 19 19 18 16 14 13 12 13 15 16 16 18 17 17 15 11 10 11 13 12 12 12 13 16 18 18 19 22 28 33 33 32 33 33 33 33 32 32 32 31 31 32 32 32 32 31 31 31
20 19 16 14 12 12 14 17 18 16 15 14 14 15 15 17 19 21 23 24 25 24 23 23 22 21 22 22 22 20 19 18 15 13 13 14 15 16 15 15 14 12 10 10 13 15 16 14 12 13 15 16 16 19 25 29 31 31 32 32 32 32 32 32 32 31 31 31 31 31 31 31 31 31
21 19 17 16 13 11 12 14 15 14 14 14 14 15 15 15 15 16 16 17 21 26 29 29 26 24 23 21 19 19 18 17 14 13 13 13 14 15 15 14 13 12 10 9 11 15 16 15 14 14 14 15 17 20 25 28 29 30 31 31 31 31 31 31 31 30 30 29 29 29 30 31 31 31
22 20 18 17 14 11 10 10 11 13 14 15 16 15 14 13 14 15 14 12 12 16 22 26 27 26 23 21 18 15 14 13 12 12 14 13 13 14 15 13 12 10 8 7 9 12 13 13 13 15 14 15 17 19 23 27 28 28 29 30 30 30 30 30 30 29 29 29 28 28 29 30 31 31
23 21 19 17 16 13 10 9 10 12 14 15 16 16 15 14 16 16 15 14 14 14 15 17 21 23 23 21 18 14 13 12 11 10 12 12 12 13 14 13 12 10 8 9 10 11 12 12 11 12 13 13 14 15 18 22 25 27 27 28 29 30 30 30 29 29 28 28 28 28 29 29 30 30
25 22 20 18 18 16 11 10 10 13 16 17 17 17 17 18 19 17 15 14 15 15 15 15 16 19 22 22 21 19 17 16 16 15 14 13 13 16 16 17 17 15 13 13 13 14 13 11 11 12 12 13 14 14 15 17 20 24 26 28 29 29 30 30 29 29 29 29 29 29 29 29 29 30
25 24 22 20 19 17 14 12 11 11 13 16 15 14 15 17 17 14 13 14 14 14 15 16 15 16 16 17 19 20 20 20 21 22 20 19 20 22 22 21 19 17 16 11 9 12 12 10 11 11 9 10 12 12 13 13 15 18 23 26 28 29 30 30 29 29 29 29 30 30 30 30 29 30
26 23 22 22 22 19 16 14 12 10 11 14 16 16 17 19 17 15 14 15 15 15 16 15 16 16 15 15 15 17 17 18 20 23 24 25 25 24 23 21 18 18 18 12 8 10 10 8 10 10 7 7 9 9 11 13 13 15 18 20 22 25 28 29 28 28 28 27 27 27 28 29 29 28
27 23 20 23 24 21 18 16 14 13 13 14 17 19 21 20 18 16 17 17 16 16 16 15 15 16 15 16 16 15 15 16 17 19 21 23 23 23 23 23 21 21 22 17 13 14 14 11 10 8 7 7 8 8 10 11 11 13 15 16 15 16 22 27 26 25 26 26 25 25 24 25 26 27
29 24 21 23 25 22 19 18 18 17 15 14 14 16 17 17 15 13 15 17 18 18 17 16 16 16 16 17 16 16 17 18 18 19 20 20 22 23 23 23 23 23 22 17 13 13 14 13 12 10 9 8 7 7 8 9 8 9 13 15 15 14 17 22 22 20 21 23 25 26 25 24 24 27
32 29 26 24 25 24 21 20 19 17 14 13 13 15 16 17 17 16 15 14 15 17 18 18 19 19 18 18 18 18 19 20 20 21 22 22 22 22 22 22 23 23 21 17 14 12 12 13 13 12 11 10 8 7 7 8 8 8 9 12 14 15 16 18 19 18 18 20 22 24 26 26 26 26
34 33 30 24 22 22 21 20 19 16 14 14 17 18 17 17 19 21 22 21 19 18 18 18 20 21 20 20 20 20 21 20 19 19 20 20 20 20 21 21 21 21 21 21 20 18 16 16 15 12 11 11 10 9 7 7 8 8 8 8 10 12 14 15 17 18 18 19 20 20 22 23 24 25
33 34 32 26 21 21 20 20 19 18 17 19 21 21 19 19 18 19 22 23 25 25 23 21 19 20 21 21 21 21 21 19 19 19 19 19 20 21 21 21 22 22 22 23 23 21 20 20 18 16 13 12 12 12 10 8 7 7 7 7 7 8 10 12 14 16 17 17 18 19 19 19 20 22
30 30 30 28 25 23 21 21 21 22 21 22 24 24 22 20 19 19 19 20 22 25 26 25 23 21 19 19 19 19 19 18 18 19 19 19 20 21 22 23 24 24 23 24 24 23 22 22 20 19 17 14 13 14 13 11 10 10 8 6 6 7 7 9 12 13 15 16 17 17 18 18 19 20
26 26 26 26 25 24 25 25 25 25 25 24 25 24 21 19 19 20 21 21 21 22 23 25 25 24 20 18 18 18 19 19 18 19 19 19 19 20 21 23 25 25 24 24 24 24 24 23 23 22 20 18 15 14 13 13 13 13 11 9 8 7 6 8 10 12 12 14 15 16 17 17 18 19
28 26 25 25 25 26 28 28 27 26 26 25 24 22 19 18 19 19 19 20 20 21 21 22 23 24 24 23 22 21 21 20 19 18 19 19 20 20 21 23 25 26 26 25 24 24 24 24 24 23 23 21 18 15 13 13 14 14 12 10 11 11 9 9 11 11 11 12 13 14 15 15 16 17
33 30 27 28 30 30 29 27 27 27 25 24 23 21 18 18 18 17 17 17 18 19 19 20 20 21 23 24 25 24 23 22 21 20 20 21 22 21 21 23 24 24 25 26 25 24 23 23 24 24 23 23 22 19 17 15 14 13 14 13 13 14 13 12 12 11 10 10 11 11 12 12 13 13
37 35 32 33 34 33 31 29 28 27 25 24 23 21 18 18 18 16 15 15 16 17 17 18 19 19 20 21 23 23 23 23 21 20 21 23 23 22 22 22 22 23 25 26 25 24 23 22 22 23 23 23 23 23 21 19 16 14 13 14 13 13 13 13 12 11 9 8 8 8 9 9 9 10
36 37 36 35 35 34 32 31 30 28 26 24 22 19 17 18 18 17 16 15 15 15 16 16 17 18 18 19 20 22 23 24 24 23 24 24 22 22 23 22 20 19 21 22 23 24 25 23 22 23 23 23 24 25 24 23 22 18 15 14 13 14 16 15 12 11 10 7 6 7 8 8 8 9
35 35 34 34 35 35 34 33 31 28 26 23 20 18 18 18 18 18 18 16 14 14 15 15 16 16 17 17 17 17 19 21 23 25 27 26 23 22 24 23 21 19 18 19 21 24 26 24 21 22 23 23 24 26 25 24 23 21 19 17 14 15 19 17 13 12 12 8 7 8 9 9 10 9
33 31 29 30 33 35 34 32 30 27 23 21 19 18 19 20 20 20 19 18 16 15 15 14 15 16 17 17 17 16 15 16 17 19 22 23 23 25 25 24 23 21 19 18 20 22 26 27 23 21 22 23 24 24 22 21 22 22 21 19 17 16 18 16 14 14 13 10 10 11 11 10 9 9
29 27 26 28 30 31 30 28 26 23 21 21 19 19 19 22 22 22 21 20 19 17 15 14 15 15 17 18 19 19 18 18 18 19 20 21 22 25 24 23 24 22 19 18 19 20 24 27 26 22 21 22 22 20 18 19 21 22 21 20 18 17 17 16 15 15 13 11 12 13 13 11 10 9
28 28 27 27 27 26 24 23 21 21 21 22 21 19 20 22 23 22 21 21 19 18 17 15 14 13 13 14 17 19 19 19 19 20 21 20 20 21 22 23 24 22 18 18 20 20 22 25 25 22 21 21 22 21 19 19 20 20 19 19 19 18 17 16 16 16 14 13 13 14 14 13 11 9
27 29 29 28 26 24 21 19 20 21 22 23 21 20 19 20 21 20 20 19 18 18 17 15 13 12 11 11 13 15 16 17 18 18 18 17 17 18 20 21 21 20 18 19 20 21 22 22 22 20 20 22 22 21 19 18 18 17 16 16 17 19 18 16 17 17 16 15 15 16 16 14 12 10
25 27 27 27 26 24 21 21 22 23 23 22 20 19 19 18 18 18 17 17 16 16 16 14 13 12 12 12 13 13 13 14 16 18 19 18 17 17 19 20 18 17 18 19 20 22 22 20 18 18 20 21 21 20 19 18 18 18 16 15 16 17 17 17 18 18 16 15 16 18 17 15 13 11
24 24 23 24 25 24 23 23 23 23 22 21 20 19 18 17 17 17 16 15 15 15 15 15 14 13 13 15 14 13 12 11 12 15 18 18 16 16 18 19 19 19 18 18 19 21 21 18 16 18 20 21 21 21 21 20 19 19 19 17 15 16 17 17 18 18 17 17 18 19 18 16 14 12
21 21 21 21 21 22 22 22 21 21 20 20 19 19 18 17 17 16 15 14 15 15 14 14 15 14 14 14 13 11 11 10 11 13 16 16 16 17 18 20 21 21 19 18 19 19 19 18 17 19 21 21 22 22 22 21 21 21 19 17 15 15 16 17 17 18 19 20 21 21 20 18 15 13
20 21 21 20 19 19 19 19 19 20 20 20 19 18 18 17 16 15 15 14 15 14 14 14 14 14 13 13 13 12 12 11 12 14 16 16 16 16 17 18 19 20 19 19 19 19 18 18 18 19 20 20 21 21 21 21 22 22 20 17 16 15 14 15 15 16 19 22 24 23 22 20 18 15
19 20 19 18 18 18 18 19 20 20 20 19 18 18 17 16 15 14 14 14 14 14 14 13 13 13 13 13 13 14 14 14 14 15 17 17 16 16 17 17 18 19 20 20 19 18 18 17 16 16 17 18 20 21 21 21 20 20 18 18 17 15 14 13 13 14 17 21 24 23 22 20 19 17
Wind_Direction
255 257 259 260 262 263 262 263 262 257 256 257 257 257 256 259 267 274 275 273 272 277 284 291 296 295 281 262 259 273 276 268 261 259 256 254 252 249 244 241 242 240 238 237 231 221 216 214 213 212 208 205 210 220 226 232 232 228 227 227 217 192 165 168 178 181 190 199 202 204 205 203 202 203
255 257 258 259 261 261 260 260 257 251 253 255 252 252 250 248 253 261 268 270 268 269 275 277 269 265 265 268 273 279 284 275 265 258 257 253 251 251 248 243 242 241 241 241 235 226 219 216 214 213 210 204 202 207 214 222 229 231 230 229 230 229 216 193 183 176 180 191 196 199 204 205 206 206
255 257 258 258 258 258 256 255 253 251 252 251 248 246 244 245 246 251 261 266 264 263 267 269 264 260 259 259 263 267 274 282 275 264 259 254 251 250 249 247 243 241 243 244 240 231 223 218 216 214 211 208 205 205 210 217 222 227 231 231 231 233 234 229 224 214 198 195 191 185 193 201 207 212
255 256 257 257 255 254 252 248 247 249 249 246 244 244 242 243 244 244 251 259 263 262 260 264 267 267 266 264 265 268 272 280 283 274 265 259 255 252 250 249 245 242 242 244 244 238 230 222 219 217 212 209 208 207 210 212 211 213 222 230 232 232 234 236 238 239 233 228 228 221 206 196 201 208
250 251 252 253 253 251 249 246 243 242 245 243 241 242 242 241 241 240 245 254 262 264 258 261 268 272 274 274 274 276 278 279 284 284 277 268 260 255 253 251 248 244 242 243 244 242 237 229 223 220 215 210 208 209 211 208 203 205 212 223 231 233 235 237 239 241 240 238 240 242 241 233 211 202
243 246 247 249 251 250 250 248 245 241 240 241 239 239 240 241 241 239 242 251 259 264 261 261 265 268 271 275 277 280 280 281 283 285 285 278 268 261 256 253 251 248 243 242 243 243 241 236 230 224 219 215 210 210 211 207 203 207 210 214 222 228 232 236 239 241 243 241 240 243 246 247 244 234
242 244 246 248 250 250 251 249 247 245 242 241 241 239 239 241 243 241 242 247 254 261 265 265 263 264 266 271 276 279 279 281 283 283 285 287 279 268 260 255 252 249 245 243 242 242 241 240 237 231 225 220 215 212 211 209 208 212 213 213 216 223 228 231 234 239 243 243 242 243 245 246 248 251
242 243 245 246 247 249 251 250 249 248 246 245 244 243 242 243 244 244 244 246 250 258 263 264 263 265 266 267 270 275 278 280 282 283 286 286 280 270 263 257 252 249 247 243 242 242 241 240 239 237 232 226 221 217 214 211 211 214 216 216 219 224 226 225 227 232 236 241 244 244 244 244 244 247
242 242 243 244 246 248 249 250 249 248 248 247 246 246 246 246 246 246 247 247 249 254 259 262 263 264 265 267 267 269 275 280 283 283 283 281 278 272 266 260 254 250 247 244 242 241 241 241 240 239 238 234 228 222 219 216 214 215 217 218 221 225 226 224 224 226 229 235 240 243 246 247 245 244
240 239 241 242 245 247 249 250 250 250 250 250 248 247 247 246 245 245 247 249 249 251 255 259 262 263 264 266 267 267 269 275 279 283 284 281 277 275 274 270 263 255 249 245 243 240 240 241 241 240 240 239 236 230 225 222 219 218 218 218 221 225 226 225 223 222 225 227 231 235 240 246 249 249
238 238 237 235 237 244 250 253 252 249 249 250 250 250 248 248 246 245 247 249 250 252 255 258 260 262 261 263 266 267 265 266 270 275 280 281 279 280 282 281 275 263 251 246 243 240 239 239 240 240 240 239 239 237 233 228 224 222 221 220 221 223 225 227 225 222 222 223 224 227 229 233 240 248
237 234 231 230 234 243 254 261 262 258 253 251 251 250 249 249 248 248 250 251 252 253 254 257 260 262 260 258 261 263 258 256 257 259 268 278 282 283 283 280 278 271 257 247 243 240 238 238 239 240 240 240 240 239 238 235 232 228 225 224 223 224 225 227 227 225 224 223 222 223 225 227 228 233
233 230 231 233 239 249 258 261 261 262 261 258 258 256 253 251 249 249 250 250 252 252 253 256 258 257 256 254 253 254 251 248 250 255 264 272 277 283 284 278 273 272 266 254 246 241 237 237 238 238 239 240 239 239 239 239 238 235 232 229 226 226 226 226 227 227 226 225 224 223 223 223 225 226
228 228 234 240 247 253 258 259 256 256 259 260 263 263 260 256 253 251 250 248 247 245 247 253 255 254 255 254 252 251 249 247 250 256 262 269 275 282 284 279 271 267 268 262 254 246 240 237 237 236 238 239 238 238 238 239 239 238 237 234 231 229 228 227 227 227 227 227 225 225 224 222 223 225
227 229 235 243 251 250 251 253 252 252 253 255 259 262 261 257 254 252 251 249 248 247 248 251 252 256 262 267 268 263 258 253 251 254 256 264 272 274 280 284 278 263 260 263 261 255 245 240 239 236 236 238 237 237 237 237 238 237 238 237 235 233 231 229 228 227 227 228 228 227 226 225 224 224
230 231 235 245 252 251 248 247 246 246 245 248 253 258 262 260 255 256 257 254 252 254 256 256 257 260 266 274 279 280 280 271 259 259 259 258 263 267 273 280 275 261 260 259 257 251 233 232 239 236 234 236 235 236 236 235 235 235 235 236 235 234 233 231 230 229 227 229 230 229 229 228 227 226
230 231 237 245 252 256 252 243 240 240 240 244 248 253 257 254 248 249 255 262 266 266 264 262 262 265 269 274 280 288 296 292 278 270 264 258 261 263 266 273 273 266 265 264 264 250 220 217 238 234 229 232 233 233 233 232 233 234 233 233 233 234 234 233 232 231 229 229 230 232 232 232 231 230
230 233 243 254 259 261 251 238 236 238 238 239 243 246 249 249 246 244 245 250 257 262 266 267 267 269 271 274 279 283 285 284 279 274 268 262 263 261 260 270 271 260 256 266 277 265 232 222 239 237 230 234 234 233 234 233 233 234 234 234 233 233 233 234 233 233 232 231 230 231 234 235 235 234
233 238 250 262 263 259 251 240 239 243 239 236 238 242 245 250 254 253 248 245 245 250 258 265 270 274 275 275 278 277 277 274 264 261 263 261 261 260 261 265 260 252 254 259 270 268 244 230 242 248 241 241 240 237 237 235 235 235 236 236 236 234 233 233 233 234 233 233 232 232 233 236 237 238
234 236 240 249 253 251 252 247 241 240 238 235 237 239 242 248 254 257 260 262 255 248 250 256 263 270 273 277 279 276 273 265 251 250 255 252 250 255 260 262 257 256 267 262 261 268 253 237 247 252 246 244 244 241 238 236 236 237 238 239 239 237 236 234 233 233 233 233 234 233 233 235 237 239
233 234 230 235 241 240 247 254 245 239 237 236 236 239 244 251 256 260 263 263 262 259 254 253 257 261 266 272 276 275 267 255 248 253 251 240 242 253 259 264 267 269 273 271 273 275 259 240 244 251 246 245 244 241 239 238 237 236 237 238 239 238 237 235 233 232 231 232 233 233 233 233 234 237
231 234 230 229 232 233 243 256 247 241 243 243 242 243 247 252 255 260 265 266 264 261 258 257 257 256 257 258 260 260 257 249 249 254 249 238 248 261 267 273 278 281 277 270 267 265 255 244 249 252 249 249 246 241 238 236 233 232 233 234 235 235 233 232 231 229 228 228 228 230 231 231 230 231
229 235 234 230 228 229 241 253 244 234 242 250 254 254 254 258 262 268 273 275 273 267 262 263 264 260 257 254 250 249 247 243 243 247 248 252 259 265 269 270 271 274 276 272 259 252 251 249 246 239 237 248 250 240 233 232 230 228 228 229 230 230 228 227 227 226 225 225 225 225 227 228 227 227
227 232 233 234 233 229 237 251 245 229 236 252 263 268 266 266 272 278 278 274 271 268 266 267 268 266 262 257 252 248 243 238 237 237 239 247 254 258 261 260 258 262 267 268 261 260 264 252 230 222 229 251 250 235 224 224 227 226 224 225 226 226 225 224 222 222 222 222 223 223 224 224 224 223
226 226 226 233 234 231 239 250 242 232 240 250 255 260 264 270 278 281 279 275 271 268 265 263 263 260 255 251 251 251 246 241 238 233 232 236 242 245 250 253 254 257 261 262 263 267 269 259 241 244 259 255 245 233 213 205 212 221 220 219 220 223 226 225 223 223 223 222 221 221 220 221 221 220
224 221 222 231 234 235 243 243 232 235 249 253 251 252 256 265 274 277 275 273 272 269 266 263 261 257 250 246 246 247 246 245 242 236 231 232 236 237 241 245 248 251 256 258 258 263 266 261 257 264 269 256 246 236 213 195 193 203 207 208 207 209 218 222 221 220 221 222 223 223 222 222 221 221
223 222 223 230 237 242 241 230 228 244 257 254 250 250 249 253 258 257 254 255 260 264 263 260 259 257 253 251 251 248 246 245 243 238 233 234 239 242 244 247 250 253 255 250 243 247 254 257 259 264 265 260 255 247 230 213 202 195 192 194 196 199 207 213 214 216 219 222 224 226 227 227 226 227
224 225 225 227 235 238 230 222 232 253 262 251 244 243 251 263 265 258 253 248 248 256 260 258 258 258 256 254 251 249 248 247 249 249 245 243 245 247 249 251 254 257 259 252 244 242 246 251 255 258 256 254 254 252 242 222 211 207 198 190 191 196 200 203 208 214 219 223 226 227 228 230 231 232
224 226 227 226 227 228 223 223 237 250 252 248 244 246 262 279 277 265 257 251 247 249 253 254 257 260 260 256 250 251 255 256 255 258 256 251 245 241 241 246 248 250 253 253 250 246 245 248 253 254 252 250 248 245 241 232 225 219 210 202 200 201 204 207 209 211 215 219 223 226 228 231 234 235
225 227 228 226 226 229 228 228 238 246 246 245 247 253 269 280 275 265 260 255 250 248 247 249 250 254 258 259 256 256 260 259 254 252 252 252 250 244 239 240 245 248 250 252 252 249 247 248 251 253 253 250 246 241 239 241 243 240 237 234 219 210 220 225 218 216 219 220 222 226 230 232 234 238
224 226 225 224 226 231 232 233 238 244 244 244 248 258 271 276 269 263 261 257 254 252 250 249 248 246 246 249 251 252 254 252 249 245 244 246 252 254 248 242 241 245 249 250 250 249 248 248 249 251 252 250 248 244 239 238 241 243 246 248 238 226 228 232 227 225 225 225 226 228 230 233 237 241
215 219 220 219 220 224 230 235 240 244 245 247 252 261 270 270 262 259 258 255 253 253 252 251 250 247 244 243 243 245 246 246 245 243 243 245 250 255 257 252 244 243 247 250 250 248 246 247 248 249 250 249 248 245 241 238 239 240 239 241 244 241 234 239 246 243 233 229 231 231 231 235 240 242
210 212 215 217 218 224 232 236 239 243 246 248 253 260 264 260 254 252 253 252 252 252 252 251 250 249 247 246 246 245 244 244 244 244 245 247 246 247 252 255 251 245 243 246 248 246 243 243 245 247 248 247 245 242 240 240 241 238 233 234 242 246 245 250 257 256 249 243 240 239 240 239 237 238
212 212 216 220 223 229 235 236 237 241 243 245 253 260 257 246 243 246 247 248 250 251 250 250 250 249 248 247 246 245 244 243 244 242 241 243 245 244 245 248 250 248 244 243 245 246 242 240 242 245 246 245 244 243 241 241 240 237 233 234 239 243 247 251 253 255 260 257 246 246 253 251 246 248
215 216 219 224 227 231 234 235 236 239 241 244 252 257 248 237 236 241 244 246 248 249 249 249 249 249 249 248 247 246 244 243 243 241 240 242 244 244 241 239 239 242 241 238 239 242 242 238 237 241 243 241 242 243 243 241 240 236 231 233 237 240 243 244 245 248 254 251 241 249 265 272 272 272
216 218 220 225 228 230 232 233 236 238 241 245 249 248 241 237 237 240 244 247 248 247 248 248 247 246 247 248 248 246 244 244 244 242 242 244 243 242 241 241 239 237 234 231 232 238 242 239 234 235 238 237 238 243 244 242 241 239 233 230 235 244 245 239 234 239 243 239 241 251 259 265 267 266
213 214 216 222 227 230 232 234 237 239 240 242 246 245 241 239 240 243 247 249 249 248 248 249 248 246 245 246 248 247 243 244 244 243 243 243 242 242 243 243 241 239 236 232 231 233 238 239 235 232 233 232 234 240 245 243 242 242 238 233 235 245 247 237 229 233 235 232 239 244 243 244 249 250
211 210 212 220 226 231 233 234 235 234 232 235 243 248 244 240 240 245 248 249 250 250 250 250 251 249 246 246 247 246 244 245 246 248 249 247 244 243 243 240 238 239 237 232 228 227 232 237 238 234 229 226 225 230 236 240 244 245 242 237 235 239 242 235 228 229 230 229 237 239 232 233 241 244
211 213 217 223 226 230 232 229 226 226 227 233 244 250 247 242 241 244 247 248 249 249 248 249 251 250 247 246 245 244 245 247 248 248 248 245 241 240 239 236 235 234 231 230 227 221 222 230 235 233 229 225 225 228 231 237 245 250 248 241 234 234 238 235 229 227 227 230 236 236 230 231 237 241
212 215 218 220 223 228 231 225 222 224 227 235 245 251 250 246 244 243 244 245 245 245 246 248 250 248 245 244 243 242 243 245 245 240 235 233 235 235 233 232 231 227 225 229 228 219 218 226 232 234 233 229 226 227 229 231 240 249 251 240 231 230 235 235 230 228 227 230 234 233 230 231 236 240
212 212 213 216 222 229 231 226 223 224 227 235 246 251 249 244 241 240 242 242 242 242 244 246 247 244 240 238 239 240 240 242 243 238 231 230 236 237 230 226 225 224 226 231 229 220 220 228 234 233 231 226 220 221 225 227 233 241 240 230 225 228 233 233 230 229 229 232 233 230 227 228 235 243
212 211 213 219 223 225 224 220 220 221 226 238 248 248 242 237 236 238 240 240 241 243 243 244 245 243 240 239 239 240 240 241 240 233 226 226 234 241 233 224 222 225 227 228 224 220 223 232 231 222 218 217 216 221 225 227 231 235 234 229 227 230 230 228 227 228 229 230 230 229 228 229 234 242
207 208 208 209 210 210 212 214 217 222 231 242 246 241 235 233 235 237 239 241 242 242 242 243 245 244 242 243 244 244 243 239 229 222 221 225 233 238 235 228 226 227 226 222 221 222 227 229 222 214 214 218 221 224 227 229 232 234 234 233 231 228 223 222 224 227 227 225 223 223 225 226 230 237
196 199 201 202 204 208 213 217 222 229 238 243 239 232 230 231 233 236 238 240 240 240 239 241 244 245 245 247 251 252 250 244 233 223 222 226 230 231 232 231 228 224 223 224 227 228 226 223 218 217 222 227 227 227 229 230 231 234 235 233 229 225 222 223 227 229 227 223 220 221 222 223 228 236
195 201 206 210 214 219 223 227 232 238 241 236 227 224 227 229 230 233 236 237 236 237 238 238 239 242 244 247 251 254 254 251 243 232 225 224 223 225 230 232 226 221 222 227 230 226 222 222 224 224 226 227 225 224 224 225 228 233 234 230 228 228 227 228 233 235 231 225 225 227 227 226 231 238
Height
1428 1428 1428 1429 1429 1429 1430 1430 1430 1430 1430 1430 1430 1430 1430 1430 1428 1427 1426 1425 1424 1423 1421 1420 1420 1420 1420 1421 1421 1420 1419 1419 1420 1421 1423 1425 1427 1429 1431 1432 1433 1435 1436 1436 1437 1439 1440 1442 1443 1445 1446 1448 1450 1452 1453 1454 1456 1459 1462 1464 1465 1465 1463 1464 1465 1466 1469 1472 1475 1477 1479 1481 1484 1486
1423 1424 1424 1424 1425 1425 1426 1426 1426 1426 1426 1426 1426 1426 1426 1427 1426 1426 1425 1423 1423 1423 1421 1420 1420 1419 1419 1419 1419 1419 1418 1417 1418 1419 1420 1422 1425 1426 1428 1429 1431 1433 1434 1434 1435 1437 1439 1440 1441 1443 1445 1447 1448 1450 1451 1452 1454 1457 1460 1462 1464 1465 1464 1463 1464 1465 1468 1470 1472 1474 1476 1479 1482 1485
1419 1419 1420 1420 1421 1421 1422 1422 1422 1422 1422 1422 1422 1423 1423 1423 1423 1423 1423 1421 1421 1422 1421 1420 1419 1418 1417 1417 1417 1417 1417 1417 1416 1418 1419 1420 1422 1424 1425 1426 1428 1430 1431 1431 1432 1434 1436 1438 1439 1440 1443 1445 1446 1447 1448 1450 1452 1455 1457 1460 1462 1464 1464 1463 1463 1464 1466 1468 1470 1472 1473 1476 1480 1482
1415 1415 1416 1416 1417 1417 1418 1418 1419 1418 1418 1418 1419 1419 1420 1420 1420 1421 1420 1419 1419 1420 1420 1419 1418 1417 1416 1416 1415 1415 1415 1416 1416 1416 1417 1418 1420 1421 1421 1422 1424 1426 1427 1428 1430 1432 1434 1435 1436 1438 1440 1442 1444 1445 1447 1449 1452 1454 1455 1456 1459 1461 1463 1463 1463 1463 1465 1467 1469 1470 1472 1474 1477 1480
1412 1412 1412 1412 1413 1414 1414 1414 1415 1415 1415 1415 1415 1416 1417 1417 1418 1418 1418 1417 1417 1417 1418 1418 1417 1417 1416 1414 1414 1414 1414 1414 1414 1414 1415 1416 1417 1418 1418 1418 1419 1421 1423 1425 1427 1429 1431 1433 1434 1436 1438 1440 1442 1444 1446 1448 1451 1452 1453 1454 1456 1458 1461 1462 1463 1463 1464 1466 1468 1469 1471 1473 1475 1477
1409 1409 1409 1409 1410 1410 1410 1410 1411 1412 1412 1412 1413 1413 1414 1414 1415 1415 1416 1416 1415 1415 1415 1416 1416 1416 1415 1413 1413 1413 1412 1412 1412 1412 1412 1412 1413 1414 1414 1415 1415 1417 1419 1421 1424 1426 1428 1429 1431 1433 1436 1437 1440 1442 1444 1446 1448 1450 1451 1453 1454 1455 1457 1459 1461 1461 1462 1464 1466 1468 1470 1472 1473 1475
1406 1406 1406 1407 1407 1407 1407 1407 1408 1408 1408 1409 1409 1410 1410 1411 1411 1412 1413 1413 1413 1412 1412 1413 1413 1414 1413 1412 1412 1411 1411 1411 1411 1410 1410 1410 1410 1410 1410 1411 1412 1413 1415 1418 1420 1422 1424 1426 1428 1430 1432 1434 1437 1439 1441 1444 1446 1447 1449 1451 1452 1452 1454 1456 1458 1459 1459 1461 1463 1466 1469 1471 1472 1474
1404 1403 1404 1404 1404 1404 1404 1404 1404 1405 1405 1405 1406 1406 1407 1408 1408 1409 1410 1410 1410 1410 1409 1410 1410 1410 1410 1410 1410 1410 1409 1408 1408 1408 1408 1407 1407 1407 1407 1408 1408 1409 1412 1414 1416 1418 1420 1422 1424 1426 1428 1431 1434 1436 1438 1441 1443 1445 1447 1449 1450 1450 1452 1454 1455 1456 1456 1457 1460 1463 1466 1469 1472 1474
1402 1401 1401 1402 1402 1402 1401 1401 1401 1401 1402 1402 1403 1403 1404 1404 1405 1406 1406 1406 1407 1407 1406 1406 1407 1407 1407 1406 1407 1407 1406 1405 1404 1404 1404 1404 1404 1405 1405 1406 1406 1407 1409 1411 1412 1414 1416 1418 1420 1422 1424 1426 1429 1432 1435 1438 1441 1443 1445 1447 1448 1448 1450 1451 1452 1453 1454 1455 1457 1460 1463 1466 1469 1472
1400 1399 1399 1399 1399 1399 1399 1399 1399 1399 1399 1399 1400 1400 1401 1401 1402 1402 1403 1403 1403 1403 1403 1403 1404 1404 1403 1403 1403 1403 1404 1403 1402 1401 1401 1401 1402 1403 1403 1404 1404 1405 1406 1407 1408 1410 1411 1413 1415 1417 1420 1422 1425 1428 1431 1434 1437 1439 1441 1444 1445 1446 1447 1449 1450 1451 1452 1454 1456 1458 1460 1463 1465 1468
1397 1397 1397 1397 1397 1397 1397 1397 1396 1396 1396 1396 1397 1397 1398 1399 1399 1399 1399 1400 1400 1400 1400 1401 1401 1401 1401 1401 1400 1401 1402 1402 1401 1400 1399 1399 1400 1400 1401 1401 1402 1402 1403 1403 1404 1405 1407 1409 1410 1413 1415 1418 1421 1424 1427 1430 1432 1435 1437 1440 1442 1443 1445 1446 1447 1448 1450 1452 1454 1456 1458 1460 1462 1465
1395 1395 1395 1395 1395 1396 1396 1395 1395 1394 1394 1394 1394 1395 1396 1396 1396 1397 1397 1397 1397 1398 1398 1398 1398 1399 1399 1399 1399 1399 1400 1400 1399 1400 1399 1398 1398 1399 1399 1399 1399 1399 1399 1399 1400 1401 1403 1404 1406 1408 1411 1414 1417 1419 1422 1425 1427 1430 1433 1436 1438 1440 1441 1443 1444 1446 1447 1450 1452 1454 1456 1457 1459 1461
1393 1393 1393 1393 1393 1394 1394 1394 1393 1393 1393 1392 1392 1393 1393 1394 1394 1394 1394 1395 1395 1395 1395 1396 1396 1397 1397 1398 1398 1398 1398 1398 1399 1399 1400 1398 1398 1398 1397 1396 1397 1397 1397 1397 1397 1398 1400 1401 1403 1405 1407 1409 1412 1415 1418 1420 1423 1425 1429 1431 1434 1436 1438 1440 1441 1443 1445 1447 1449 1451 1453 1455 1457 1459
1390 1391 1391 1391 1391 1391 1391 1391 1391 1391 1391 1391 1391 1391 1391 1391 1392 1392 1392 1392 1392 1393 1393 1393 1394 1394 1395 1395 1396 1396 1397 1397 1398 1398 1398 1397 1397 1397 1395 1394 1395 1395 1396 1396 1396 1396 1397 1399 1400 1401 1403 1405 1408 1411 1413 1415 1418 1421 1424 1427 1430 1432 1434 1436 1438 1440 1442 1443 1445 1448 1450 1452 1454 1456
1388 1388 1388 1389 1389 1388 1389 1389 1389 1389 1388 1388 1389 1389 1389 1389 1389 1389 1389 1389 1390 1390 1391 1391 1392 1392 1392 1393 1393 1394 1395 1395 1396 1396 1397 1396 1396 1396 1395 1393 1393 1394 1395 1395 1395 1396 1397 1397 1398 1399 1401 1402 1404 1406 1408 1411 1413 1416 1419 1422 1425 1428 1430 1432 1435 1437 1438 1440 1442 1444 1446 1449 1452 1453
1384 1385 1386 1386 1385 1385 1386 1386 1386 1386 1386 1386 1387 1387 1387 1387 1387 1387 1387 1387 1388 1388 1389 1389 1389 1390 1390 1390 1391 1392 1392 1393 1394 1394 1395 1395 1395 1394 1394 1393 1392 1393 1394 1394 1393 1394 1395 1396 1396 1397 1398 1400 1401 1402 1404 1406 1409 1412 1415 1418 1420 1422 1425 1428 1430 1433 1435 1436 1438 1440 1443 1445 1448 1450
1381 1382 1383 1383 1382 1382 1383 1383 1383 1384 1384 1384 1385 1385 1385 1385 1385 1386 1385 1385 1386 1386 1387 1387 1387 1388 1388 1389 1389 1390 1391 1391 1392 1392 1393 1393 1394 1393 1393 1392 1391 1391 1392 1392 1391 1391 1393 1394 1394 1395 1396 1397 1398 1399 1400 1401 1404 1407 1410 1413 1416 1418 1420 1423 1426 1428 1430 1432 1434 1436 1438 1441 1444 1446
1377 1379 1379 1379 1379 1380 1380 1380 1380 1381 1381 1382 1382 1383 1383 1383 1384 1384 1384 1384 1384 1384 1384 1384 1384 1385 1386 1387 1387 1388 1389 1389 1390 1390 1391 1391 1392 1391 1391 1391 1390 1390 1390 1390 1390 1390 1390 1391 1392 1392 1394 1395 1396 1396 1397 1398 1401 1403 1406 1409 1412 1414 1416 1419 1421 1423 1425 1427 1429 1431 1434 1436 1439 1442
1373 1375 1376 1376 1376 1377 1377 1377 1378 1379 1379 1379 1380 1380 1381 1381 1381 1382 1382 1383 1383 1382 1382 1381 1381 1382 1383 1384 1385 1386 1386 1387 1387 1388 1389 1389 1389 1389 1389 1389 1388 1388 1389 1389 1389 1389 1389 1391 1391 1391 1392 1393 1394 1394 1395 1396 1398 1400 1402 1405 1408 1411 1413 1415 1417 1418 1420 1422 1424 1426 1429 1431 1434 1437
1370 1371 1373 1374 1374 1374 1374 1375 1375 1376 1376 1377 1377 1378 1378 1379 1379 1379 1380 1380 1381 1381 1381 1380 1380 1380 1381 1381 1382 1384 1384 1385 1386 1386 1387 1387 1388 1388 1387 1387 1387 1387 1388 1389 1389 1388 1389 1390 1390 1390 1391 1392 1392 1392 1393 1394 1395 1397 1399 1401 1404 1407 1409 1410 1412 1413 1415 1416 1418 1421 1424 1427 1429 1432
1366 1367 1369 1371 1371 1372 1372 1373 1373 1374 1374 1374 1375 1376 1376 1377 1377 1377 1378 1378 1378 1379 1379 1379 1379 1379 1380 1380 1381 1382 1383 1383 1384 1385 1385 1385 1386 1387 1387 1386 1386 1386 1387 1388 1388 1388 1387 1388 1388 1388 1389 1390 1390 1390 1390 1391 1393 1394 1396 1398 1400 1402 1404 1406 1407 1409 1410 1411 1413 1415 1418 1421 1424 1427
1363 1364 1366 1367 1368 1369 1370 1371 1371 1371 1371 1371 1372 1373 1374 1375 1375 1375 1376 1376 1376 1376 1377 1377 1377 1378 1379 1379 1380 1381 1381 1382 1383 1383 1383 1384 1385 1386 1386 1386 1385 1385 1386 1386 1387 1387 1386 1386 1387 1387 1387 1388 1388 1388 1388 1389 1390 1391 1393 1394 1396 1398 1400 1402 1403 1404 1406 1407 1409 1411 1413 1416 1419 1422
1360 1361 1363 1364 1365 1366 1367 1368 1369 1369 1369 1369 1369 1371 1372 1372 1372 1373 1374 1374 1374 1374 1374 1374 1375 1376 1377 1378 1378 1379 1379 1380 1382 1382 1381 1382 1383 1384 1384 1384 1385 1384 1383 1384 1385 1385 1384 1385 1386 1386 1386 1386 1386 1386 1387 1387 1388 1388 1390 1391 1393 1395 1397 1398 1399 1400 1402 1403 1404 1406 1408 1411 1414 1417
1357 1358 1360 1361 1362 1363 1365 1366 1366 1367 1367 1367 1367 1368 1368 1369 1369 1370 1371 1371 1371 1372 1372 1372 1373 1373 1374 1375 1376 1376 1377 1377 1378 1379 1379 1380 1381 1381 1381 1382 1383 1383 1381 1382 1384 1384 1383 1384 1385 1385 1385 1385 1385 1385 1385 1386 1386 1387 1387 1389 1390 1392 1393 1395 1396 1397 1398 1399 1401 1402 1405 1407 1410 1413
1353 1355 1356 1357 1358 1360 1362 1363 1364 1365 1366 1366 1366 1365 1365 1366 1367 1368 1368 1368 1369 1369 1369 1370 1371 1371 1372 1373 1373 1374 1374 1375 1375 1376 1377 1377 1378 1379 1379 1379 1380 1380 1380 1381 1382 1382 1382 1383 1384 1384 1384 1384 1384 1384 1384 1384 1385 1385 1386 1387 1389 1390 1391 1392 1394 1395 1395 1396 1397 1399 1402 1404 1407 1409
1349 1351 1353 1354 1355 1357 1359 1360 1361 1362 1363 1363 1364 1364 1364 1364 1365 1365 1365 1365 1366 1366 1367 1367 1368 1369 1369 1370 1371 1371 1372 1372 1373 1374 1374 1375 1376 1376 1376 1377 1377 1377 1378 1379 1381 1381 1381 1382 1382 1383 1383 1383 1383 1384 1384 1384 1384 1385 1385 1386 1387 1388 1389 1390 1391 1392 1393 1394 1395 1397 1399 1401 1404 1406
1345 1347 1349 1351 1352 1354 1356 1357 1358 1359 1360 1361 1361 1361 1362 1362 1362 1362 1363 1363 1363 1363 1364 1364 1365 1366 1367 1367 1368 1369 1369 1370 1370 1371 1372 1373 1373 1373 1374 1374 1375 1375 1376 1377 1378 1379 1380 1380 1381 1381 1382 1382 1382 1382 1383 1383 1384 1384 1384 1385 1386 1387 1387 1388 1389 1390 1391 1392 1393 1394 1396 1398 1401 1403
1341 1343 1346 1348 1349 1351 1353 1354 1355 1356 1357 1358 1358 1358 1359 1359 1359 1359 1360 1360 1361 1361 1361 1361 1362 1363 1364 1365 1365 1366 1366 1367 1368 1369 1369 1370 1371 1371 1371 1372 1372 1373 1374 1375 1376 1377 1378 1378 1379 1380 1380 1381 1381 1381 1382 1382 1383 1383 1384 1384 1385 1385 1386 1387 1388 1388 1389 1390 1390 1392 1393 1395 1397 1399
1337 1339 1342 1345 1346 1348 1350 1351 1352 1353 1354 1355 1355 1356 1356 1356 1356 1356 1356 1357 1357 1358 1358 1358 1359 1359 1360 1361 1362 1363 1364 1365 1366 1366 1367 1367 1368 1368 1369 1369 1369 1370 1371 1372 1373 1374 1375 1376 1377 1378 1379 1379 1380 1380 1380 1381 1382 1382 1383 1384 1384 1384 1385 1385 1386 1386 1387 1388 1388 1389 1391 1392 1394 1396
1334 1336 1339 1341 1343 1345 1347 1348 1349 1349 1351 1352 1352 1353 1353 1353 1352 1352 1353 1353 1354 1354 1355 1356 1356 1357 1358 1358 1359 1360 1361 1362 1363 1363 1364 1364 1364 1365 1366 1366 1366 1367 1368 1369 1370 1371 1373 1374 1375 1376 1377 1378 1379 1379 1379 1380 1381 1381 1382 1382 1383 1383 1383 1383 1384 1384 1385 1385 1386 1387 1388 1390 1391 1392
1331 1333 1335 1337 1340 1341 1343 1343 1345 1346 1347 1348 1349 1350 1350 1350 1349 1349 1350 1350 1350 1351 1351 1352 1353 1354 1355 1356 1356 1357 1358 1359 1359 1360 1361 1362 1362 1362 1363 1363 1364 1364 1365 1366 1367 1368 1369 1371 1372 1373 1374 1376 1376 1377 1378 1379 1379 1380 1381 1381 1381 1382 1382 1382 1382 1382 1383 1383 1384 1385 1386 1387 1388 1389
1327 1329 1331 1334 1336 1337 1338 1339 1341 1342 1343 1345 1346 1346 1347 1347 1346 1347 1347 1347 1347 1347 1348 1349 1349 1350 1351 1352 1353 1354 1355 1356 1357 1358 1358 1359 1359 1359 1359 1359 1360 1361 1362 1362 1363 1365 1366 1367 1369 1370 1371 1373 1374 1375 1376 1376 1377 1378 1378 1379 1379 1379 1380 1380 1379 1380 1380 1381 1381 1382 1383 1384 1386 1387
1322 1325 1327 1329 1330 1332 1334 1336 1337 1338 1340 1341 1342 1343 1344 1344 1344 1344 1344 1344 1344 1344 1345 1345 1346 1347 1347 1348 1349 1350 1351 1352 1353 1354 1355 1355 1356 1357 1357 1356 1357 1358 1359 1359 1360 1361 1363 1364 1365 1367 1368 1369 1371 1372 1373 1373 1374 1375 1376 1376 1377 1377 1377 1377 1377 1377 1378 1378 1379 1380 1381 1382 1383 1384
1318 1321 1323 1324 1326 1328 1330 1332 1333 1335 1336 1338 1338 1339 1340 1341 1341 1341 1342 1342 1342 1342 1342 1342 1343 1343 1344 1345 1345 1346 1347 1348 1350 1351 1351 1352 1353 1353 1354 1354 1354 1355 1356 1356 1357 1358 1360 1361 1362 1364 1365 1366 1367 1368 1369 1370 1371 1372 1373 1374 1374 1375 1375 1375 1375 1375 1376 1377 1377 1378 1379 1380 1381 1381
1314 1316 1318 1320 1322 1324 1326 1328 1329 1331 1333 1334 1335 1336 1337 1337 1338 1339 1339 1339 1339 1340 1340 1340 1340 1340 1341 1341 1342 1343 1344 1345 1346 1347 1348 1349 1349 1350 1350 1351 1351 1352 1353 1354 1354 1355 1356 1358 1360 1361 1361 1363 1364 1364 1365 1366 1368 1369 1370 1372 1372 1372 1372 1373 1374 1374 1375 1375 1376 1377 1377 1378 1379 1379
1309 1312 1314 1316 1318 1320 1322 1324 1326 1328 1329 1331 1332 1333 1333 1334 1335 1336 1336 1337 1337 1337 1337 1337 1337 1338 1338 1339 1339 1340 1340 1341 1342 1343 1344 1345 1346 1347 1347 1348 1349 1349 1350 1351 1352 1352 1353 1355 1357 1358 1358 1360 1360 1361 1361 1363 1365 1366 1367 1369 1370 1370 1370 1371 1372 1373 1373 1374 1375 1376 1376 1377 1377 1378
1305 1308 1311 1312 1314 1316 1318 1320 1323 1324 1326 1327 1328 1329 1330 1331 1332 1333 1333 1334 1335 1335 1335 1335 1335 1335 1336 1336 1336 1337 1337 1338 1339 1340 1341 1342 1343 1343 1344 1345 1346 1347 1347 1348 1349 1350 1350 1351 1353 1355 1356 1357 1358 1358 1359 1360 1362 1363 1364 1366 1368 1368 1368 1369 1370 1371 1372 1373 1374 1375 1376 1376 1376 1377
1302 1305 1307 1309 1310 1312 1315 1317 1319 1321 1323 1324 1325 1326 1327 1328 1329 1330 1330 1331 1332 1332 1332 1332 1333 1333 1333 1333 1334 1334 1335 1336 1336 1337 1338 1339 1340 1340 1341 1342 1343 1344 1345 1346 1347 1347 1347 1348 1350 1351 1353 1354 1355 1356 1357 1358 1359 1360 1361 1363 1365 1366 1366 1367 1368 1369 1370 1372 1372 1373 1374 1375 1375 1376
1299 1301 1303 1305 1307 1309 1312 1314 1316 1318 1320 1321 1322 1323 1324 1325 1326 1327 1327 1328 1329 1329 1330 1330 1330 1330 1330 1331 1331 1332 1332 1333 1333 1334 1335 1336 1337 1337 1338 1339 1340 1341 1342 1343 1344 1344 1345 1345 1346 1348 1350 1351 1352 1353 1355 1356 1356 1357 1359 1360 1362 1364 1364 1365 1366 1367 1369 1370 1371 1372 1373 1374 1374 1375
1296 1298 1300 1302 1304 1307 1310 1312 1313 1315 1317 1318 1320 1321 1321 1322 1323 1324 1324 1325 1325 1326 1327 1327 1327 1328 1328 1328 1328 1329 1329 1330 1330 1331 1332 1333 1334 1335 1335 1336 1337 1339 1340 1340 1341 1341 1342 1342 1344 1346 1348 1349 1350 1352 1354 1355 1355 1355 1357 1358 1360 1361 1362 1363 1364 1365 1367 1368 1370 1371 1372 1372 1373 1374
1293 1295 1298 1300 1302 1305 1307 1309 1311 1313 1314 1316 1317 1318 1319 1319 1320 1321 1322 1322 1323 1324 1324 1325 1325 1325 1326 1326 1327 1327 1327 1327 1328 1328 1330 1331 1331 1332 1332 1334 1335 1336 1337 1337 1338 1339 1340 1340 1342 1344 1346 1347 1349 1350 1351 1352 1353 1354 1355 1356 1357 1359 1360 1361 1362 1363 1365 1367 1368 1369 1370 1371 1372 1372
1290 1293 1295 1298 1301 1303 1305 1307 1309 1310 1312 1313 1314 1315 1316 1317 1318 1318 1319 1320 1320 1321 1322 1322 1323 1323 1324 1324 1324 1325 1325 1325 1325 1326 1327 1328 1329 1330 1330 1331 1333 1333 1334 1335 1336 1336 1338 1339 1340 1342 1343 1345 1347 1348 1349 1350 1351 1352 1353 1354 1356 1357 1358 1359 1360 1361 1363 1364 1366 1367 1368 1369 1370 1371
1289 1291 1294 1297 1299 1301 1303 1305 1306 1308 1309 1311 1312 1313 1314 1315 1315 1316 1317 1317 1318 1319 1319 1320 1320 1321 1321 1322 1322 1322 1322 1323 1323 1324 1325 1326 1327 1328 1328 1329 1330 1331 1332 1333 1333 1334 1336 1337 1338 1340 1341 1343 1344 1346 1347 1348 1349 1350 1351 1353 1354 1355 1356 1357 1358 1360 1361 1362 1363 1365 1366 1367 1368 1369
1288 1291 1293 1295 1297 1299 1301 1302 1304 1305 1307 1308 1309 1310 1311 1312 1313 1314 1314 1315 1316 1316 1317 1318 1318 1319 1319 1319 1320 1320 1320 1321 1321 1322 1323 1324 1325 1326 1326 1327 1328 1329 1330 1331 1331 1333 1334 1335 1336 1338 1339 1340 1342 1343 1345 1346 1347 1348 1350 1351 1352 1353 1355 1356 1357 1358 1359 1360 1361 1362 1364 1365 1366 1367
1287 1289 1291 1294 1295 1297 1299 1300 1302 1303 1305 1306 1307 1308 1309 1310 1311 1312 1312 1313 1314 1314 1315 1316 1316 1317 1317 1317 1318 1318 1318 1318 1319 1320 1321 1322 1323 1324 1324 1325 1326 1327 1327 1328 1330 1331 1332 1333 1335 1336 1337 1338 1340 1341 1343 1344 1345 1346 1348 1349 1351 1352 1353 1354 1355 1356 1357 1358 1360 1361 1362 1363 1364 1365